C/2004 P1 ( NEAT )

Japanese version
Home page
Updated on September 25, 2005

---------------------------------------------------------------------

* Profile

Discovery Date August 5, 2004
Magnitude 19.9 mag
Discoverer Near-Earth-Asteroid Tracking Team (Jet Propulsion Laboratory)

* Orbital Elements

Epoch 2003 Aug. 29.0 TT = JDT 2452880.5
T 2003 Aug.  9.03043 TT                                 MPC
q   6.0138677            (2000.0)            P               Q
z  +0.0001964      Peri.   16.60585     +0.47765686     +0.74391711
 +/-0.0000754      Node   284.18976     -0.85087992     +0.25927184
e   0.9988190      Incl.   28.82100     -0.21874023     +0.61592649

* Finding Charts

* Magnitudes Graph

        m1 = 7.2 + 5 log d + 10.0 log r

---------------------------------------------------------------------

The orbital elements are published on M.P.E.C. 2004-U11.
The charts are made with StellaNavigator Ver.2.0 for Windows (AstroArts / ASCII).
The magnitudes graphs are made with Comet for Windows.

---------------------------------------------------------------------

Copyright(C) Seiichi Yoshida (comet@aerith.net). All rights reserved.